Agostinho Neto Airport


Codes: GVAN/NTO
Name: Agostinho Neto Airport
City: Ponta do Sol
Country: Cape Verde
Elevation: 32 ft.
Wikipedia:

Photos at Agostinho Neto Airport


   Photos courtesy of SpottingLog. You can add your own sightings and photos by signing up for a free trial today.



No photos found.

Weather at Agostinho Neto Airport


Time (UTC)DescriptionTempratureWindCloud coverageVisibilityPressureHumidity
16-Jun-2024 00:00Few Clouds24°C11 mph, NE11%10000m1016hPa82%
16-Jun-2024 03:00Few Clouds23°C9 mph, NE11%10000m1016hPa82%
16-Jun-2024 06:00Clear Sky23°C11 mph, NE10%10000m1015hPa81%
16-Jun-2024 09:00Few Clouds22°C9 mph, NE21%10000m1015hPa81%
16-Jun-2024 12:00Few Clouds23°C11 mph, NE18%10000m1015hPa79%
16-Jun-2024 15:00Few Clouds23°C13 mph, NE18%10000m1014hPa80%
16-Jun-2024 18:00Few Clouds23°C13 mph, NE24%10000m1014hPa81%
16-Jun-2024 21:00Scattered Clouds23°C9 mph, NE32%10000m1015hPa82%
17-Jun-2024 00:00Few Clouds23°C7 mph, NE24%10000m1016hPa82%
17-Jun-2024 03:00Few Clouds22°C7 mph, NE13%10000m1014hPa82%
17-Jun-2024 06:00Few Clouds22°C7 mph, NE14%10000m1013hPa82%
17-Jun-2024 09:00Few Clouds23°C9 mph, NE23%10000m1014hPa81%
17-Jun-2024 12:00Light Rain23°C11 mph, NE27%10000m1016hPa79%
17-Jun-2024 15:00Broken Clouds24°C11 mph, NE59%10000m1014hPa78%
17-Jun-2024 18:00Broken Clouds24°C11 mph, NE57%10000m1014hPa79%
17-Jun-2024 21:00Broken Clouds23°C9 mph, NE76%10000m1014hPa83%
18-Jun-2024 00:00Broken Clouds23°C9 mph, NE62%10000m1015hPa84%
18-Jun-2024 03:00Few Clouds23°C7 mph, NE20%10000m1014hPa85%
18-Jun-2024 06:00Few Clouds22°C9 mph, NE24%10000m1014hPa84%
18-Jun-2024 09:00Scattered Clouds23°C11 mph, NE49%10000m1016hPa80%
18-Jun-2024 12:00Scattered Clouds24°C9 mph, NE38%10000m1016hPa76%
18-Jun-2024 15:00Clear Sky24°C11 mph, N4%10000m1015hPa77%
18-Jun-2024 18:00Few Clouds24°C11 mph, NE12%10000m1014hPa77%
18-Jun-2024 21:00Few Clouds23°C11 mph, NE17%10000m1015hPa83%
19-Jun-2024 00:00Few Clouds23°C11 mph, NE23%10000m1015hPa85%
19-Jun-2024 03:00Scattered Clouds23°C13 mph, NE44%10000m1014hPa87%
19-Jun-2024 06:00Broken Clouds23°C13 mph, E58%10000m1014hPa86%
19-Jun-2024 09:00Scattered Clouds23°C11 mph, NE45%10000m1015hPa82%
19-Jun-2024 12:00Scattered Clouds24°C16 mph, E43%10000m1017hPa82%
19-Jun-2024 15:00Overcast Clouds24°C11 mph, E88%10000m1015hPa77%
19-Jun-2024 18:00Broken Clouds24°C11 mph, E58%10000m1015hPa80%
19-Jun-2024 21:00Broken Clouds24°C11 mph, NE78%10000m1017hPa83%
20-Jun-2024 00:00Overcast Clouds23°C11 mph, NE89%10000m1017hPa86%
20-Jun-2024 03:00Overcast Clouds23°C11 mph, E98%10000m1016hPa84%
20-Jun-2024 06:00Overcast Clouds23°C11 mph, NE99%10000m1016hPa85%
20-Jun-2024 09:00Overcast Clouds23°C13 mph, E97%10000m1017hPa84%
20-Jun-2024 12:00Broken Clouds24°C13 mph, NE75%10000m1018hPa78%
20-Jun-2024 15:00Broken Clouds24°C13 mph, NE66%10000m1016hPa79%
20-Jun-2024 18:00Broken Clouds23°C11 mph, NE76%10000m1015hPa78%
20-Jun-2024 21:00Overcast Clouds23°C11 mph, NE87%10000m1017hPa82%